Track COSMOS 2413 (GLONASS) now! COSMOS 2413 (GLONASS) is classified as:
1 28508U 04053A 21022.44075532 -.00000016 00000-0 00000-0 0 9990 2 28508 63.2608 130.3638 0008500 183.2969 186.9527 2.13104324125113